Regional Weather Roundup
Issued by NWS San Diego, CA

Home | Current Version | Previous Version | Text Only | Print | Product List | Glossary On
Versions: 1 2 3 4 5 6 7 8 9 10 11 12 13 14 15 16 17 18 19 20 21 22 23 24 25 26 27 28 29 30 31 32 33 34 35 36 37 38 39 40 41 42 43 44 45 46 47 48 49 50
000
ASUS46 KSGX 071111
RWRSGX

SAN DIEGO HOURLY WEATHER ROUNDUP
NATIONAL WEATHER SERVICE SAN DIEGO CA
300 AM PST SUN FEB 07 2016

NOTE: "FAIR" INDICATES FEW OR NO CLOUDS BELOW 12,000 FEET WITH NO
SIGNIFICANT WEATHER AND/OR OBSTRUCTIONS TO VISIBILITY.

CAZ042-043-060-061-PZZ750-775-071200-

GREATER SAN DIEGO AREA

CITY           SKY/WX    TMP DP  RH WIND       PRES   REMARKS
LINDBERGH FLD  CLEAR     54  30  40 CALM      30.14F
NATIONAL CITY    N/A     50  32  49 CALM      30.13F
CHULA VISTA      N/A     48  33  55 E3        30.06F
IMPERIAL BEACH CLEAR     52  25  35 NE9       30.12F
BROWN FIELD    CLEAR     51  25  36 NE6       30.13F
MIRAMAR MCAS   CLEAR     53  28  38 E9        30.13F
MONTGOMERY FLD CLEAR     47  32  56 E3        30.14S

$$

NORTH SAN DIEGO COUNTY

CITY           SKY/WX    TMP DP  RH WIND       PRES   REMARKS
CAMP PENDLETON CLEAR     39  31  72 CALM      30.13F
OCEANSIDE AP   CLEAR     46  28  49 NE5       30.13F
OCEANSIDE HBR    N/A     56  29  36 E10       30.15F
VISTA            N/A     54  27  35 CALM      30.13F
CARLSBAD       CLEAR     58  23  26 NE5       30.12F
DEL MAR          N/A     57  27  32 CALM      30.15F
FALLBROOK        N/A     61  26  26 N3        30.14S
ESCONDIDO        N/A     47  33  58 CALM      30.15F
SAN MARCOS       N/A     54  25  33 CALM      30.12F
POWAY            N/A     43  30  61 CALM      30.17S

$$

EAST SAN DIEGO COUNTY

CITY           SKY/WX    TMP DP  RH WIND       PRES   REMARKS
RAMONA         CLEAR     43  24  47 SE5       30.15F
SANTEE LAKES     N/A     42  33  71 CALM      30.15S
LA MESA          N/A     56  25  29 CALM      30.07F
JAMUL            N/A     44  23  43 CALM      30.16F
DESCANSO N       N/A     60  -1   8 E13       30.06S
MT. LAGUNA OBS   N/A     44   6  21 E12       29.82S
CAMPO            N/A     57  14  18 VRB3      30.16F

$$

ORANGE COUNTY AND THE LOS ANGELES BASIN

CITY           SKY/WX    TMP DP  RH WIND       PRES   REMARKS
JOHN WAYNE AP  CLEAR     50  33  52 CALM      30.13F
LAGUNA BEACH     N/A     45  30  55 CALM      30.09F
LAKE FOREST FR   N/A     63  13  14 NE2       30.01F
HUNTINGTON BCH   N/A     46  35  65 CALM      30.14F
LOS ALAMITOS   FAIR      51  33  50 N2        30.13F
FULLERTON      CLEAR     52  32  46 CALM      30.13F
LONG BEACH     CLEAR     55  31  39 W6        30.14F
L.A. AP        CLEAR     56  27  32 CALM      30.15F
L.A. DOWNTOWN  CLEAR     52  30  43 CALM      30.15F

$$

THE INLAND EMPIRE

CITY           SKY/WX    TMP DP  RH WIND       PRES   REMARKS
CORONA         CLEAR     66  18  15 SE13      30.17F
CHINO          CLEAR     45  33  63 N3        30.18S
ONTARIO        PTCLDY    47  28  47 NW3       30.16F
RIVERSIDE AP   CLEAR     56  22  26 NE7       30.18F
MORENO VALLEY    N/A     54  28  36 CALM      28.32S
MARCH ARB      CLEAR     43  22  44 W2        30.19F
HORSETHIEF CYN   N/A     57  15  19 NW9       30.24S
PERRIS           N/A     63  21  20 SE6         N/A
HEMET EAST       N/A     52  13  21 CALM      30.10F
FRENCH VALLEY  FAIR      45  28  53 N8        30.19F
TEMECULA         N/A     48  29  49 CALM      30.17S

$$

SAN BERNARDINO AND RIVERSIDE COUNTY MOUNTAINS

CITY           SKY/WX    TMP DP  RH WIND       PRES   REMARKS
BIG BEAR AP    CLEAR     23  14  68 CALM      30.40S
ANGELUS OAKS     N/A     43  20  39 CALM      30.20F
PINE COVE        N/A     49   8  18 NW1       30.18F

$$

SOUTHERN DESERT INCLUDING THE COACHELLA VALLEY

CITY           SKY/WX    TMP DP  RH WIND       PRES   REMARKS
PALM SPRINGS   CLEAR     56  25  30 W6        30.24S
THOUSAND PALMS   N/A     51  24  34 W2        30.20S
PALM DESERT      N/A     47  31  53 CALM      28.32R
THERMAL        CLEAR     42  26  53 W6        30.19F
BLYTHE         CLEAR     48  24  39 SW5       30.23S
IMPERIAL AP    CLEAR     45  23  42 W5        30.19F
EL CENTRO NAS  CLEAR     45  21  38 W5        30.21F
YUMA AZ        CLEAR     56  22  26 N9        30.18R

$$

UPPER DESERT

CITY           SKY/WX    TMP DP  RH WIND       PRES   REMARKS
VICTORVILLE AP   N/A     37  19  48 CALM      30.33F
HESPERIA         N/A     39  22  51 CALM      30.51F
APPLE VALLEY     N/A     32  21  64 CALM      30.35S
PALMDALE       CLEAR     33  24  69 S6        30.34F WCI  28
LANCASTER      CLEAR     32  25  75 CALM      30.34F
EDWARDS AFB    CLEAR     33  21  60 SW2       30.32F
DAGGETT        CLEAR     39  21  48 W8        30.33S WCI  33
29 PALMS N     CLEAR     44  18  35 NW3       30.37F
NEEDLES        CLEAR     55  25  31 NW8       30.27S

$$

REGIONAL REPORTS

CITY           SKY/WX    TMP DP  RH WIND       PRES   REMARKS
SANTA BARBARA  CLEAR     45  36  70 N5        30.15F
SANDBERG       CLEAR     49  19  30 E25       30.32F
LAS VEGAS NV   CLEAR     44  25  47 SW5       30.31S
PHOENIX AZ     CLEAR     49  26  41 SE3       30.18S
TIJUANA        CLEAR     55  16  21 CALM      30.16S
ENSENADA NW      N/A     58  32  36 NE2       30.09F

$$

OFFSHORE ISLANDS

CITY           SKY/WX    TMP DP  RH WIND       PRES   REMARKS
CATALINA ARPT  CLEAR     63  16  16 E7        30.18F
SAN NICOLAS IS CLEAR    N/A N/A N/A NE7       30.13F

$$

MARINE AND OFFSHORE BUOY REPORTS

STATION/POSITION SKY/WX   TEMP    WIND        PRES    SWELL
                          AIR SEA DIR/SP/G            HT/PER/DIR
                          (F)     (DEG/KT/KT) (MB)    (FT/S/D)
TANNER BANKS               60 59  350/  6/  6 1019.8F   7/310/12
S CLEMENTE BASIN           60 60   20/  4/  6 1019.8F   5/290/14
SAN NICOLAS IS.               57                N/A     5/280/13
SO. S. ROSA ISLA           64 57              1019.9F
W. S. BARBARA CH           58 58  300/  2/  4 1020.5F   7/280/14
M. S. BARBARA CH           58 57   30/  4/  6 1021.5F
S. MONICA BASIN            63 59   60/  4/  6 1020.6F   3/260/12
S PEDRO CHANNEL               59                N/A     2/270/13
DANA POINT                    59                N/A     2/270/14
OCEANSIDE OFFSHR              59                N/A     3/260/14
TORREY PINES OTR              60                N/A     3/260/13
LA JOLLA 1                 60 59  140/  2/  4 1020.3F
SAN DIEGO BAY                 60              1021.1S
POINT LOMA SOUTH              60                N/A     3/280/13

$$





USA.gov is the U.S. government's official web portal to all federal, state and local government web resources and services.